Dewpoint
74 74 75 75 74 75 75 75 75 76 76 76 76 76 76 77 77 76 76 76 76 76 76 75 76 76 76 76 76 76 76 76 75 75 75 75 75 75 75 75 75 74 74 74 75 75 75 75 74 74 75 75 75 75 75 75 75 75 75 74 74 74 74 75 75 75 74 75 75 75 74 74 74 74 74 74 74 73 74 74 73 72 72 73 74
74 74 74 75 76 75 75 75 75 76 76 76 76 76 76 76 76 76 76 76 76 76 76 76 76 76 76 76 76 76 76 75 75 75 75 75 75 74 74 74 74 74 74 75 75 75 75 75 75 74 74 74 75 75 75 74 75 74 74 74 74 74 75 75 75 75 75 75 75 75 74 74 74 74 74 74 73 74 74 75 74 72 72 74 74
73 75 74 75 75 75 75 76 76 76 76 76 76 76 76 76 76 76 76 76 76 76 76 76 76 76 76 76 76 75 75 75 75 74 74 75 75 74 74 74 74 74 74 75 75 75 75 75 75 75 75 75 74 75 74 74 74 74 74 74 74 74 75 75 76 76 75 75 75 75 75 74 74 74 74 74 74 74 74 74 74 74 72 73 73
74 73 73 75 75 76 76 76 76 76 76 75 76 77 77 77 76 77 76 76 76 76 77 76 76 76 75 75 75 75 75 74 74 74 74 74 75 74 74 74 74 74 74 75 75 75 75 75 75 74 74 74 74 74 74 74 75 74 75 75 75 75 75 75 75 76 75 74 73 74 74 73 73 74 74 74 74 74 75 74 74 74 73 73 74
72 72 74 75 76 76 76 76 76 76 76 76 77 77 77 77 76 77 77 77 77 77 76 76 76 75 75 75 75 75 74 74 74 74 74 74 75 75 74 73 74 74 76 76 75 74 74 74 74 74 74 74 74 74 74 74 74 75 74 75 75 75 75 75 75 75 75 74 74 74 74 73 73 73 74 74 74 75 74 74 74 73 74 74 74
71 72 72 72 73 75 76 76 76 76 76 77 77 77 77 77 77 77 77 77 76 76 75 75 75 75 75 75 75 75 75 75 75 74 75 75 75 75 74 74 73 74 76 76 75 75 74 74 74 74 74 74 74 74 74 74 74 74 75 75 75 75 75 75 74 74 74 74 74 74 74 73 71 72 74 74 74 74 74 74 74 74 75 75 75
70 71 71 71 74 76 77 76 77 76 76 77 77 77 77 77 77 77 76 76 76 75 75 75 75 75 75 75 75 75 74 74 74 74 74 75 75 75 75 75 74 74 75 75 75 75 74 75 74 74 74 74 74 74 74 74 73 74 74 75 74 74 74 74 74 74 74 73 74 74 74 72 72 71 74 74 73 73 73 73 74 75 75 74 74
68 69 69 70 72 75 77 77 77 77 77 77 77 77 77 77 76 76 76 75 75 75 75 75 75 75 75 75 74 74 74 74 74 74 75 75 75 76 75 75 74 74 74 75 75 74 74 74 74 74 74 74 74 74 74 73 74 74 74 74 75 74 74 73 75 74 73 74 74 73 74 75 74 71 74 74 74 74 75 74 74 75 74 74 75
66 67 67 69 73 76 77 76 77 77 77 77 77 77 76 76 76 76 75 76 76 76 75 75 75 75 75 75 75 75 75 75 75 75 75 75 75 75 75 75 74 74 74 75 75 75 75 74 74 74 74 74 74 74 74 73 73 74 74 74 74 74 75 75 74 72 73 73 74 74 73 74 72 72 73 74 74 74 74 74 75 75 73 73 74
67 67 68 69 72 77 77 76 76 76 77 76 76 76 76 76 75 76 76 76 75 76 75 75 75 75 75 75 75 76 76 75 75 75 74 75 75 74 75 75 74 74 74 75 75 74 74 74 74 74 74 75 75 74 74 74 74 74 74 74 73 74 74 73 74 73 73 74 73 73 73 74 73 73 73 74 73 72 72 73 73 73 74 74 75
66 67 66 69 72 77 76 76 76 76 76 76 76 76 76 76 76 76 76 76 76 76 76 76 75 75 75 76 75 75 75 75 75 74 74 74 74 74 75 75 75 74 74 74 75 75 75 74 74 74 75 74 74 74 74 73 74 74 74 74 74 74 73 73 73 73 73 73 74 74 74 74 74 73 74 74 74 73 74 73 74 74 74 74 74
66 67 69 72 77 77 77 76 76 76 76 76 76 76 76 76 76 77 76 76 76 75 76 76 75 75 75 75 75 76 75 75 75 75 74 74 75 75 75 75 74 74 74 74 75 75 75 74 74 74 74 74 74 75 74 73 74 74 74 74 74 74 73 73 73 74 73 73 73 73 72 72 73 73 75 74 74 74 74 74 74 74 74 74 74
65 66 69 71 73 76 76 76 76 76 76 76 76 76 76 76 76 76 76 76 76 76 75 75 75 75 75 75 75 76 76 75 75 75 75 74 75 75 75 75 75 74 73 74 75 75 74 74 74 74 74 74 74 74 74 73 74 74 74 74 73 74 74 74 73 73 74 73 73 73 73 74 72 74 74 74 74 74 74 74 73 74 74 74 74
66 67 67 69 73 77 76 76 76 76 76 76 76 76 76 76 76 76 76 76 75 76 75 75 75 75 75 75 76 76 75 75 75 74 74 75 74 75 75 75 75 75 74 74 75 74 74 74 74 74 74 74 74 74 74 74 74 74 74 74 73 73 74 73 73 73 73 73 74 74 74 74 73 74 74 74 74 74 73 73 73 74 73 73 74
66 65 66 69 73 74 76 76 76 76 75 75 76 76 76 76 76 76 76 76 76 76 76 75 75 75 76 76 76 75 75 75 75 75 75 74 74 74 74 74 75 74 74 75 75 74 74 73 74 74 74 74 73 74 74 74 74 74 74 74 74 73 72 73 72 72 73 73 73 73 73 74 74 74 74 74 73 73 73 73 73 73 73 73 73
64 64 67 69 71 74 75 76 76 76 75 76 76 76 76 76 76 76 76 76 76 75 75 76 75 76 76 76 75 75 75 75 75 75 74 75 74 74 74 74 75 75 74 75 74 74 73 74 74 74 74 74 74 74 74 74 74 74 73 74 74 72 73 73 73 73 73 73 73 73 73 73 73 73 74 74 73 73 73 73 73 73 73 73 73
63 66 66 68 70 71 72 74 75 76 76 76 76 76 76 77 76 76 76 76 76 76 75 76 75 76 76 75 75 75 75 75 75 75 75 75 74 74 74 74 74 74 75 74 73 73 74 74 74 74 75 74 74 74 74 73 74 74 73 73 73 73 73 73 72 72 71 73 73 74 74 72 73 74 74 73 73 73 73 73 73 73 73 73 73
65 65 66 68 68 69 70 72 75 75 75 75 76 76 76 76 76 76 76 76 76 76 75 75 75 75 75 76 75 75 75 75 75 75 75 74 76 75 75 75 74 74 75 74 73 73 73 74 74 75 75 75 75 74 74 74 74 74 73 72 71 72 72 72 70 71 72 72 72 73 73 74 73 74 74 73 74 74 73 73 73 73 73 73 73
63 63 65 66 67 68 69 74 73 73 74 74 75 75 75 76 76 76 76 76 76 76 76 75 75 76 76 76 75 75 74 75 75 75 75 74 74 75 74 74 74 74 74 74 74 73 73 73 74 74 74 74 74 75 74 75 74 74 73 72 72 72 72 71 70 71 71 72 72 71 74 74 74 74 73 73 74 73 74 73 74 73 73 73 73
64 64 63 66 66 67 71 71 71 72 73 71 73 74 75 75 75 76 76 76 75 76 76 76 75 75 75 75 74 75 75 74 74 74 75 75 74 74 75 75 74 73 73 73 74 74 74 74 74 74 74 74 75 75 75 74 74 74 73 73 73 72 73 70 70 70 68 69 71 72 74 74 74 74 74 74 74 73 73 74 74 73 73 72 73
64 64 64 64 65 69 71 71 72 72 71 72 73 74 75 75 75 75 75 76 76 76 76 76 76 75 75 75 75 75 75 75 75 74 75 75 75 74 75 75 74 74 74 73 74 73 74 73 74 75 75 75 75 75 75 75 74 74 74 74 73 75 67 69 67 68 67 69 71 73 74 74 74 74 74 73 73 73 73 74 74 73 73 73 73
64 63 64 64 66 70 70 72 73 72 72 71 72 74 75 75 75 76 75 76 76 76 76 76 76 76 74 75 75 76 76 77 76 73 74 75 74 74 74 74 74 74 74 74 74 75 75 74 74 75 75 75 76 74 75 75 74 74 74 75 74 67 69 68 68 69 69 70 71 73 75 74 74 74 74 74 73 73 73 73 74 74 74 73 73
63 62 64 65 68 69 70 69 70 73 73 71 72 73 74 75 75 75 74 74 74 75 76 76 75 74 74 75 76 75 76 77 77 75 74 74 73 73 74 74 75 74 75 75 75 75 75 75 75 75 75 75 75 75 74 72 74 74 76 73 68 68 69 68 67 68 69 70 72 74 74 73 73 73 73 73 74 74 73 73 74 74 74 73 73
63 62 63 64 67 68 68 70 72 73 73 73 72 72 73 76 75 75 74 75 75 75 76 76 76 75 75 76 74 75 76 77 76 76 74 74 74 74 74 75 75 75 75 74 75 75 75 75 74 75 75 74 74 73 73 74 72 73 73 71 69 69 69 68 66 69 69 70 71 74 73 73 73 73 73 73 73 73 74 73 73 74 74 74 73
63 62 64 65 67 68 68 70 73 73 73 73 72 72 74 72 73 73 74 74 74 75 75 76 75 77 76 74 75 74 74 75 76 76 76 75 75 74 75 76 76 75 74 75 75 75 76 75 75 74 71 73 74 73 73 71 72 73 69 69 69 69 67 68 68 69 70 72 73 74 73 73 73 73 73 74 73 73 73 74 74 74 74 74 73
63 63 63 65 66 67 67 69 71 72 73 73 73 72 73 72 73 72 75 73 72 74 73 73 74 75 72 68 71 72 73 73 76 76 76 77 77 76 76 76 75 76 75 76 74 76 75 74 74 73 74 68 69 69 69 71 69 68 69 71 69 70 69 68 68 71 70 71 74 74 74 73 73 73 73 73 73 73 73 74 74 74 73 74 73
62 62 64 64 65 66 67 69 69 73 73 73 73 72 71 71 71 71 73 72 71 71 71 71 72 73 70 69 66 69 70 75 75 75 77 75 75 75 76 77 75 75 76 77 75 75 75 74 74 70 68 66 63 68 67 67 69 67 69 69 70 70 69 69 68 69 73 72 74 74 74 74 73 73 72 72 73 73 72 73 73 74 74 74 73
64 64 62 63 65 63 67 68 70 73 73 74 73 71 71 70 71 73 71 70 71 70 69 70 72 73 71 68 67 67 68 68 70 71 70 71 74 75 74 77 69 74 72 73 74 75 72 73 71 70 70 68 66 66 64 67 67 69 67 69 70 70 71 69 70 70 71 71 74 75 75 75 74 74 73 72 73 73 73 73 73 73 73 73 73
62 63 62 61 63 64 66 67 70 71 72 72 71 70 71 71 71 72 71 73 71 69 70 72 70 70 69 70 70 65 66 67 68 69 69 71 69 70 69 68 72 71 74 74 73 75 74 75 76 76 70 70 67 67 67 64 67 67 65 68 68 70 70 70 71 68 69 71 72 74 75 75 74 74 74 73 72 72 73 73 73 73 73 73 73
62 63 61 62 62 64 65 66 69 71 72 69 71 71 71 71 71 72 73 73 70 71 72 66 66 68 69 70 69 66 67 66 70 69 70 69 70 68 69 69 69 72 75 74 74 74 73 73 72 71 70 70 69 68 68 64 61 64 64 65 67 66 70 68 70 69 69 70 71 73 75 74 74 74 74 74 73 72 72 72 72 73 73 72 73
63 61 61 62 64 64 63 67 69 71 71 68 71 72 73 72 72 72 72 72 72 73 68 66 65 66 69 74 75 74 70 70 71 71 70 69 69 70 71 69 72 77 75 75 71 72 74 70 71 71 71 71 71 67 68 67 67 63 63 63 64 68 68 70 67 65 64 71 71 72 74 75 74 74 74 74 73 73 73 72 72 72 72 72 72
63 61 61 63 62 63 63 66 68 70 71 68 71 72 73 72 73 72 70 73 73 68 65 67 66 68 72 74 74 74 74 74 75 73 72 72 71 71 73 74 75 75 74 74 72 75 74 72 72 73 73 72 70 69 69 66 65 63 64 62 64 65 66 68 64 63 65 68 71 72 73 74 75 75 75 74 74 73 73 73 73 72 72 72 72
63 62 62 61 62 62 64 66 68 71 70 68 69 70 70 70 71 70 71 72 70 68 66 67 69 73 74 74 75 75 76 75 76 74 73 74 74 75 73 74 76 75 74 73 76 76 73 76 73 74 73 70 69 69 68 66 65 64 62 62 63 64 66 68 68 64 62 63 69 71 73 73 74 75 75 75 74 74 74 73 73 73 73 73 72
63 63 62 61 61 61 63 64 67 69 69 67 70 68 69 69 69 69 72 72 67 66 67 70 71 72 73 75 74 75 76 76 76 76 73 71 73 73 73 72 74 74 75 76 76 75 74 72 71 72 70 73 67 69 70 66 63 62 63 62 65 67 65 64 66 65 64 63 65 71 73 74 74 74 74 75 74 75 74 74 74 74 74 74 74
64 63 63 62 61 62 63 63 67 68 69 67 67 68 68 67 67 68 70 69 68 66 65 69 69 70 72 73 74 75 77 78 78 76 74 74 73 72 72 72 73 76 76 76 77 74 76 74 71 70 70 68 68 69 67 66 63 63 65 65 63 65 65 64 67 67 67 67 66 64 68 70 71 73 74 74 74 75 74 75 75 74 74 74 74
63 64 64 63 61 62 64 63 66 67 68 67 68 69 68 68 66 68 69 69 66 66 65 67 68 68 70 73 75 76 77 78 78 77 75 76 76 77 74 76 74 76 77 76 76 75 76 75 75 74 70 67 69 68 69 66 64 63 63 64 66 66 66 66 67 65 63 66 67 66 67 68 70 72 73 73 74 75 74 75 75 75 74 74 74
63 64 66 64 62 62 65 62 65 66 67 68 70 70 69 69 68 67 66 68 65 64 66 67 68 68 69 70 75 76 77 76 79 76 80 75 74 75 73 74 75 75 74 77 75 74 76 69 76 72 72 72 67 64 66 67 65 63 63 62 63 66 65 69 67 65 63 67 65 63 66 68 71 70 70 72 74 75 75 75 75 75 75 75 74
65 65 66 64 61 64 63 63 65 66 67 70 71 71 70 70 68 67 69 64 62 62 64 65 67 66 69 73 74 74 76 78 78 78 78 76 76 76 77 76 74 75 76 74 75 75 73 71 73 75 71 72 67 65 65 64 63 63 63 61 65 62 65 66 68 67 67 66 67 67 67 66 67 65 67 69 67 74 74 75 75 75 75 75 75
64 65 67 67 64 65 64 66 66 67 68 72 73 72 71 72 68 68 68 65 67 63 63 64 64 66 64 74 75 74 76 78 78 78 78 77 74 75 75 74 74 75 76 75 75 75 74 73 72 71 74 70 68 67 66 64 62 62 60 62 63 66 66 65 68 67 66 64 64 66 63 68 67 68 70 68 67 69 73 74 74 74 74 75 75
65 66 69 68 66 68 65 67 68 66 70 72 72 70 70 69 66 66 68 66 66 65 66 63 66 65 67 71 74 75 75 77 78 78 77 76 73 73 75 73 74 75 75 73 74 76 75 75 75 74 71 71 68 67 66 65 64 63 64 63 65 66 67 65 67 67 67 65 65 65 62 62 67 66 66 67 69 67 71 72 73 70 72 75 76
66 67 68 68 66 68 66 67 68 68 70 70 70 67 68 67 66 63 64 65 66 66 65 65 65 64 70 72 74 73 75 75 77 77 76 75 76 75 76 75 74 74 75 73 74 75 75 75 76 73 72 70 66 65 64 66 65 64 65 64 64 66 66 64 66 65 65 64 64 64 63 64 65 65 67 65 67 66 69 71 70 70 70 75 74
67 67 68 68 68 67 65 68 68 68 70 70 69 66 67 65 64 64 61 61 64 64 65 66 64 65 72 73 74 74 75 75 75 75 75 75 74 74 76 76 74 75 77 76 76 74 74 75 74 73 69 70 68 64 63 65 65 63 62 62 63 65 66 65 63 64 64 64 64 65 64 63 61 63 64 67 68 67 67 68 70 69 70 71 73
66 66 68 68 68 68 67 69 69 68 69 69 69 67 67 66 64 63 59 59 62 65 62 63 63 64 69 73 74 74 75 74 74 75 75 74 75 75 75 77 74 76 76 75 75 75 77 75 71 72 69 68 69 67 66 66 61 62 64 63 60 62 64 64 63 63 62 62 62 62 63 63 62 64 65 67 67 68 64 67 69 69 70 70 69
66 66 67 68 67 69 69 70 69 68 71 70 70 68 68 68 67 66 64 62 62 64 65 64 64 64 67 70 73 74 74 74 73 73 73 75 76 76 75 75 75 77 77 77 77 76 75 75 72 70 71 70 69 66 66 65 66 62 62 61 60 59 60 63 63 63 62 62 62 62 62 62 63 64 67 65 64 67 68 68 68 70 71 71 70
65 67 67 67 65 67 69 70 69 69 71 71 71 69 69 68 67 67 65 65 64 63 62 62 64 65 65 69 71 74 74 74 73 73 73 75 76 76 75 75 76 76 75 74 76 73 73 73 72 75 72 70 68 67 66 63 63 66 65 62 60 59 58 59 58 60 60 60 60 60 62 61 61 66 65 65 65 67 64 66 69 70 71 72 71
65 65 67 66 66 67 69 71 69 68 69 71 72 69 69 69 68 66 64 64 65 63 62 62 62 62 61 65 70 71 72 73 73 73 73 75 76 76 76 75 74 74 74 73 73 73 74 73 73 72 72 70 72 69 65 66 63 66 66 65 66 62 60 62 60 62 65 60 61 58 61 61 62 64 67 65 64 63 66 66 68 69 70 70 70
65 66 66 67 67 67 70 71 70 69 68 71 72 70 70 70 69 67 66 64 66 66 67 63 62 63 63 64 67 70 72 72 72 73 73 74 76 76 76 75 74 74 74 74 74 73 71 71 73 72 73 74 73 73 71 65 66 66 63 61 63 63 61 61 62 62 63 64 60 59 59 60 60 61 62 63 62 63 64 66 64 64 68 70 69
65 65 66 67 68 69 70 71 71 70 69 71 71 71 70 70 70 68 66 65 63 66 67 65 62 64 62 63 64 68 72 72 70 73 74 74 75 76 76 75 73 73 73 72 72 71 71 73 74 77 76 75 75 72 71 65 67 66 63 62 61 62 63 59 60 61 63 63 63 60 58 59 59 59 60 60 59 60 61 66 65 64 65 68 71
64 65 66 66 68 69 71 72 71 71 70 72 72 71 71 71 70 67 65 65 64 63 64 64 62 63 63 64 66 66 71 73 72 71 73 74 74 75 76 75 74 73 74 72 70 70 72 74 75 75 75 75 74 73 73 72 68 64 65 66 64 63 62 62 63 63 62 62 60 60 59 58 59 59 61 60 59 60 61 63 64 63 67 68 70
64 66 66 66 67 70 72 73 72 71 71 72 73 71 71 71 70 68 66 65 64 63 62 63 65 64 64 66 67 69 68 71 72 72 74 73 74 75 74 74 74 72 72 71 71 71 71 73 74 74 75 75 75 73 72 72 70 68 65 68 69 68 66 63 61 61 61 63 61 59 57 57 60 61 62 60 61 59 59 62 64 63 64 66 67
64 65 65 66 67 69 72 73 73 72 72 73 73 72 71 71 70 69 67 66 65 64 64 66 66 66 66 66 66 69 69 71 70 71 72 72 73 75 73 73 73 74 73 73 72 70 69 70 71 74 75 75 75 74 72 72 72 72 68 69 69 66 65 64 64 63 62 62 61 60 58 57 58 57 62 60 63 60 62 61 58 59 67 67 68